Miscellaneous Local Product
Issued by NWS North Platte, NE

Home | Current Version | Previous Version | Text Only | Print | Product List | Glossary On
Versions: 1 2 3 4 5 6 7 8 9 10 11 12 13 14 15 16 17 18 19 20 21 22 23 24 25 26 27 28 29 30 31 32 33 34 35 36 37 38 39 40 41 42 43 44 45 46 47 48 49 50
000
AXUS43 KLBF 310710
MISLBF


WESTERN AND NORTH CENTRAL NEBRASKA HOURLY WEATHER ROUNDUP
NATIONAL WEATHER SERVICE NORTH PLATTE NE
200 AM CDT SUN AUG 31 2014

***STATIONS NOT REPORTING VARIABLES SUCH AS SKY/WEATHER OR
PRESSURE ARE PROVIDED BY THE NEBRASKA DEPARTMENT OF
ROADS...RAWS...AND APRS NETWORKS...AND ARE NOT UNDER
NATIONAL WEATHER SERVICE QUALITY CONTROL***

...OBSERVATIONS IN AND NEAR THE EASTERN PANHANDLE OF NEBRASKA...

CITY           SKY/WX    TMP DP  RH WIND       PRES   REMARKS
PINE RIDGE     MOCLDY    64  54  69 NE5       29.82R
CHADRON        PTCLDY    62  53  72 W7        29.82S
ALLIANCE       CLOUDY    61  53  75 W8        29.85R
SIDNEY         CLOUDY    61  48  62 W5        29.89S
WHITECLAY        N/A     65  54  65 CALM        N/A
RUSHVILLE        N/A     62  51  66 W12         N/A
GORDON           N/A     71  51  48 W12         N/A
CRESCENT LAKE    N/A     68  51  53 SW6         N/A
LISCO            N/A     66  55  68 NW5         N/A
BIG SPRINGS      N/A     70  59  68 CALM        N/A
$$

...OBSERVATIONS IN NORTH CENTRAL NEBRASKA...

CITY           SKY/WX    TMP DP  RH WIND       PRES   REMARKS
VALENTINE      CLOUDY    72  61  68 S13       29.74F
THEDFORD       CLOUDY    70  59  68 SW12      29.85R
AINSWORTH      MOCLDY    70  61  73 S6        29.78F
O`NEILL        PTCLDY    71  65  82 S9        29.78R
ORD            CLEAR     69  62  78 S8        29.79F
BROKEN BOW     PTCLDY    69  60  73 VRB5      29.83R
SPRINGVIEW       N/A     70  64  82 W3          N/A
ROSE             N/A     74  68  81 SE9         N/A
NEWPORT          N/A     73  67  82 S7          N/A
COMSTOCK         N/A     71  65  81 S7          N/A
CHAMBERS         N/A     69  63  82 S8          N/A
EWING            N/A     67  65  92 CALM        N/A
$$

...OBSERVATIONS IN SOUTHWEST NEBRASKA AND FAR NORTHEAST COLORADO...

CITY           SKY/WX    TMP DP  RH WIND       PRES   REMARKS
WRAY             N/A     68  56  67 CALM      29.89S
HOLYOKE        FAIR      66  54  63 S9        29.85F
IMPERIAL       MOCLDY    71  56  58 NW5       29.84F
OGALLALA       CLOUDY    68  55  63 CALM      29.82F
NORTH PLATTE   MOCLDY    66  58  75 CALM      29.84S
MCCOOK         PTCLDY    71  55  56 S13       29.84R
LEXINGTON      PTCLDY    72  59  63 S13G20    29.82F
PAXTON           N/A     73  60  64 CALM        N/A
SUTHERLAND       N/A     75  61  62 CALM        N/A
BRADY            N/A     71  57  61 CALM        N/A
GOTHENBURG       N/A     74  54  48 S8          N/A
CALLAWAY         N/A     65  60  85 S13         N/A
$$

...SOME WEATHER OBSERVATIONS FROM AROUND THE REGION...

CITY           SKY/WX    TMP DP  RH WIND       PRES   REMARKS
DENVER         PTCLDY    60  46  59 S13       29.95F
LARAMIE        PTCLDY    47  44  90 S7        30.05S
CHEYENNE       MOCLDY    58  46  64 W6        29.99F
SCOTTSBLUFF    PTCLDY    59  52  77 CALM      29.87S
RAPID CITY     MOCLDY    58  56  93 N6        29.77F
PIERRE         CLOUDY    70  64  81 S17       29.62S
WINNER         FAIR      74  64  71 S17G26    29.69F
SIOUX FALLS    CLEAR     65  59  81 SE9       29.80F
OMAHA          CLEAR     71  65  81 S7        29.84F
GRAND ISLAND   CLEAR     69  63  81 S10       29.82F
KANSAS CITY    CLEAR     71  66  84 SE8       29.89F
WICHITA        PTCLDY    74  67  78 S10       29.88F
HAYS           CLEAR     73  54  49 S15       29.85F
LIBERAL        MOCLDY    75  54  46 SE12      29.92F
GOODLAND       CLOUDY    68  55  63 S14G30    29.95R THUNDER
$$



USA.gov is the U.S. government's official web portal to all federal, state and local government web resources and services.